STARLINK-37538, 68844

Orbit data source: Space-Track

STARLINK-37538, 68844 is a payload satellite owned by SpaceX/Seattle (US) in SSO that was launched on Sun, 26 Apr 2026 UTC via an FALCON 9 launch vehicle from the Air Force Western Test Range (AFWTR). Payload-class satellites include a variety of spacecraft equipped with specific instruments for various scientific and technological missions. These include communications satellites like Starlink; space stations such as the ISS; scientific satellites like the Hubble; Earth observation satellites from companies like Planet Labs, Umbra, and HawkEye 360; GPS; miniature CubeSats for education and research; and military/defense satellites.

Loading next visibility...
Identifier
68844, 2026-094F
Orbit
SSO
Country
Flag of USUS
Related business
Manufacturer
SpaceX/Seattle
Mission
Operational spacecraft
Bus & Motor
STARLINK V2MO, Unknown motor
Mass
575 kg wet, ~530 kg dry
Launch date (UTC)
2026-04-26 (2 months ago)
Launch vehicle
FALCON 9
Launch site
Air Force Western Test Range (AFWTR)
Object type
Payload
Rocket body
Debris
Shape & HBR
Unknown shape, 14.5 m
Radar Cross Section
Large (>1 m²)

Expand to show TLE details & history
Last TLE update: 21 hours ago

TLE from 21 hours ago
0 STARLINK-37538
1 68844U 26094F   26170.95995673  .00010902  00000-0  33946-3 0  9990
2 68844  97.2839 185.3712 0001189 102.3397 257.7979 15.33452287  8476
Epoch: 2026-06-19T23:02Z
TLE epoch observation values (Epoch: 2026-06-19T23:02:20.261Z)
Latitude
-0.00001°
Longitude
-68.39466°
Altitude
468.806 km
Speed
7.632 km/s
True Right ascension
12h 21m 29s
True Declination
0° 00' 00"
Sunlit
Object was in daylight at epoch
Visualization orbit readout
Latitude
Unknown
Longitude
Unknown
Altitude
Unknown
Speed
Unknown
Apparent Right ascension
Unknown
Apparent Declination
Unknown
Sunlit
N/A
Visualization observer readout
Local Sidereal Time
07:13:11
Azimuth
Unknown
Elevation
Unknown
Doppler factor
Unknown
Orbital elements
Apogee altitude
463.278 km
Perigee altitude
461.651 km
Semi-major axis
6,840.601 km
Eccentricity
0.00012
Inclination
97.2839°
RAAN
185.3712°
Arg. of periapsis
102.3397°
True anomaly
257.78458°
Mean anomaly
257.7979°
Eccentric anomaly
257.79124°
Mean motion
3.8362 °/min
Orbital period
93.84 mins
BSTAR
0.00033946
Loading maneuver chart data...
Computing Atmospheric mass density...
Loading historical data...
Loading historical data...
Loading historical data...
Loading historical data...
Loading historical data...
Loading historical data...
Loading historical data...

Documentation

Showing up to 5 results
|